Location: Unspecified
(58.7730°N, 5.8460°E)
Time: 20:49:18
(UTC+01:00)

Cosmos 2058 - Visible Passes

Search period start: 21 January 2017 00:00
Search period end: 31 January 2017 00:00
Orbit: 563 x 587 km, 82.5° (Epoch: 20 January)

Date Brightness Start Highest point End Pass type
(mag) Time Alt. Az. Time Alt. Az. Time Alt. Az.
21 Jan 5.4 05:03:41 15° SE 05:03:41 15° SE 05:04:33 10° SE visible
21 Jan 4.8 06:39:59 16° SW 06:39:59 16° SW 06:41:04 10° SSW visible
21 Jan 4.6 17:32:20 10° ESE 17:34:27 14° E 17:36:35 10° NE visible
21 Jan 2.7 19:06:38 10° S 19:10:44 82° ESE 19:13:11 24° NNE visible
21 Jan 5.5 20:45:18 10° WSW 20:48:16 19° WNW 20:49:29 17° NW visible
22 Jan 4.4 17:35:08 10° ESE 17:37:47 17° E 17:40:27 10° NE visible
22 Jan 2.9 19:10:06 10° SSW 19:14:13 81° WNW 19:17:29 16° N visible
22 Jan 5.7 20:49:18 10° W 20:51:53 16° NW 20:53:46 13° NNW visible
23 Jan 4.2 17:38:06 10° SE 17:41:08 20° E 17:44:12 10° NE visible
23 Jan 3.2 19:13:37 10° SSW 19:17:42 65° WNW 19:21:39 11° N visible
23 Jan 5.9 20:53:24 10° W 20:55:32 14° NW 20:57:40 10° NNW visible
24 Jan 4.0 17:41:09 10° SE 17:44:30 25° E 17:47:52 10° NNE visible
24 Jan 3.6 19:17:11 10° SSW 19:21:13 52° WNW 19:25:16 10° N visible
24 Jan 6.0 20:57:41 10° WNW 20:59:12 12° NW 21:00:42 10° NNW visible
25 Jan 3.7 17:44:18 10° SSE 17:47:54 30° E 17:51:30 10° NNE visible
25 Jan 4.1 19:20:49 10° SW 19:24:44 43° WNW 19:28:42 10° N visible
26 Jan 3.4 17:47:30 10° SSE 17:51:17 37° E 17:55:06 10° NNE visible
26 Jan 4.5 19:24:29 10° SW 19:28:18 35° WNW 19:32:06 10° N visible
27 Jan 3.2 17:50:47 10° SSE 17:54:42 46° E 17:58:39 10° NNE visible
27 Jan 4.8 19:28:13 10° SW 19:31:51 29° WNW 19:35:30 10° N visible
28 Jan 3.0 17:54:07 10° S 17:58:08 57° E 18:02:12 10° NNE visible
28 Jan 5.1 19:32:01 10° WSW 19:35:25 25° WNW 19:38:52 10° N visible
29 Jan 2.8 17:57:29 10° S 18:01:35 72° E 18:05:42 10° NNE visible
29 Jan 5.4 19:35:51 10° WSW 19:39:01 21° WNW 19:42:12 10° N visible
30 Jan 2.9 18:00:56 10° S 18:05:03 88° E 18:09:12 10° NNE visible
30 Jan 5.6 19:39:47 10° W 19:42:38 18° NW 19:45:29 10° NNW visible
